Sparta, WI

12:04 AM CST on February 25, 2017 (GMT -0600)
Sparta-Fort McCoy

Weather History for KCMY - February, 2012

Change the Weather History Date:

Sunday, February 26, 2012

  Actual Average Record
Temperature  
Mean Temperature 34 °F -  
Max Temperature 46 °F 35 °F 59 °F (1958)
Min Temperature 21 °F 11 °F -23 °F (1963)
Degree Days  
Heating Degree Days 32    
Moisture  
Dew Point 21 °F    
Average Humidity 60    
Maximum Humidity 80    
Minimum Humidity 46    
Precipitation  
Precipitation 0.00 in - - ()
Sea Level Pressure  
Sea Level Pressure 29.91 in    
Wind  
Wind Speed 11 mph (SSW)    
Max Wind Speed 25 mph    
Max Gust Speed 34 mph    
Visibility 10 miles    
Events      
Averages and records for this station are not official NWS values.
T = Trace of Precipitation, MM = Missing Value Source: NWS Daily Summary

Daily Weather History Graph

Daily Weather History Graph

Search for Another Location

Airport or City:

Trip Planner

Search our weather history database for the weather conditions in past years. The results will help you decide how hot, cold, wet, or windy it might be!

Date:

Astronomy

Feb. 26, 2012 Rise Set
Actual Time 6:45 AM CST 5:46 PM CST
Civil Twilight 6:16 AM CST 6:15 PM CST
Nautical Twilight 5:43 AM CST 6:49 PM CST
Astronomical Twilight 5:09 AM CST 7:22 PM CST
Moon 8:28 AM CST (2/26) 10:57 PM CST (2/26)
Length of Visible Light 11h 59m
Length of Day
11h 01m
Waxing Crescent, 21% of the Moon is Illuminated
Feb 26
Waxing Crescent
Feb 29
First Quarter
Mar 8
Full
Mar 14
Last Quarter
Mar 22
New

Hourly Weather History & Observations

Time (CST) Temp. Windchill Dew Point Humidity Pressure Visibility Wind Dir Wind Speed Gust Speed Precip Events Conditions
12:35 AM 23.0 °F 15.8 °F 14.0 °F 68% 30.17 in 10.0 mi SE 5.8 mph - N/A   Overcast
1:15 AM 21.2 °F 16.4 °F 14.0 °F 74% 30.18 in 10.0 mi SSE 3.5 mph - N/A   Clear
1:35 AM 21.2 °F 16.4 °F 14.0 °F 74% 30.16 in 10.0 mi ESE 3.5 mph - N/A   Scattered Clouds
1:55 AM 23.0 °F 14.7 °F 14.0 °F 68% 30.15 in 10.0 mi ESE 6.9 mph - N/A   Overcast
2:15 AM 23.0 °F 14.7 °F 14.0 °F 68% 30.13 in 10.0 mi SE 6.9 mph - N/A   Overcast
3:35 AM 23.0 °F 12.4 °F 14.0 °F 68% 30.10 in 10.0 mi ESE 10.4 mph - N/A   Mostly Cloudy
3:55 AM 23.0 °F 12.4 °F 14.0 °F 68% 30.08 in 10.0 mi ESE 10.4 mph - N/A   Mostly Cloudy
4:15 AM 23.0 °F 13.1 °F 14.0 °F 68% 30.07 in 10.0 mi ESE 9.2 mph - N/A   Overcast
4:35 AM 23.0 °F 12.4 °F 15.8 °F 74% 30.06 in 10.0 mi ESE 10.4 mph - N/A   Overcast
4:55 AM 23.0 °F 12.4 °F 15.8 °F 74% 30.04 in 10.0 mi ESE 10.4 mph 17.3 mph N/A   Mostly Cloudy
5:15 AM 23.0 °F 12.4 °F 17.6 °F 80% 30.04 in 10.0 mi ESE 10.4 mph 17.3 mph N/A   Mostly Cloudy
6:35 AM 26.6 °F 15.7 °F 17.6 °F 69% 29.95 in 10.0 mi ESE 12.7 mph 21.9 mph N/A   Mostly Cloudy
6:55 AM 26.6 °F 13.8 °F 17.6 °F 69% 29.94 in 10.0 mi SE 17.3 mph 24.2 mph N/A   Overcast
7:35 AM 26.6 °F 17.5 °F 17.6 °F 69% 29.95 in 10.0 mi SE 9.2 mph 18.4 mph N/A   Overcast
7:55 AM 28.4 °F 18.0 °F 17.6 °F 64% 29.93 in 10.0 mi SE 12.7 mph 17.3 mph N/A   Overcast
8:15 AM 28.4 °F 18.5 °F 17.6 °F 64% 29.92 in 10.0 mi SE 11.5 mph 21.9 mph N/A   Mostly Cloudy
8:55 AM 32.0 °F 22.1 °F 17.6 °F 55% 29.88 in 10.0 mi SE 13.8 mph 19.6 mph N/A   Clear
9:15 AM 32.0 °F 18.6 °F 17.6 °F 55% 29.86 in 10.0 mi SSE 25.3 mph 33.4 mph N/A   Clear
9:35 AM 33.8 °F 22.2 °F 19.4 °F 56% 29.85 in 10.0 mi SSE 20.7 mph 32.2 mph N/A   Clear
9:55 AM 33.8 °F 22.5 °F 19.4 °F 56% 29.84 in 10.0 mi SSE 19.6 mph 34.5 mph N/A   Clear
10:15 AM 33.8 °F 21.6 °F 21.2 °F 60% 29.83 in 10.0 mi South 23.0 mph 33.4 mph N/A   Clear
10:35 AM 35.6 °F 25.2 °F 21.2 °F 56% 29.81 in 10.0 mi SSE 18.4 mph 33.4 mph N/A   Clear
10:55 AM 37.4 °F 26.6 °F 21.2 °F 52% 29.81 in 10.0 mi South 21.9 mph 29.9 mph N/A   Clear
11:15 AM 37.4 °F 27.8 °F 23.0 °F 56% 29.81 in 10.0 mi South 17.3 mph 31.1 mph N/A   Clear
11:35 AM 41.0 °F 31.9 °F 23.0 °F 49% 29.80 in 10.0 mi South 19.6 mph 28.8 mph N/A   Clear
11:55 AM 41.0 °F 32.8 °F 23.0 °F 49% 29.78 in 10.0 mi South 16.1 mph 31.1 mph N/A   Clear
12:15 PM 42.8 °F 34.8 °F 23.0 °F 46% 29.78 in 10.0 mi SSW 17.3 mph 29.9 mph N/A   Clear
12:35 PM 42.8 °F 34.5 °F 24.8 °F 49% 29.78 in 10.0 mi South 18.4 mph 33.4 mph N/A   Clear
12:55 PM 44.6 °F 38.1 °F 24.8 °F 46% 29.78 in 10.0 mi SSW 13.8 mph 25.3 mph N/A   Scattered Clouds
1:15 PM 42.8 °F 34.5 °F 26.6 °F 53% 29.77 in 10.0 mi SSW 18.4 mph 27.6 mph N/A   Mostly Cloudy
1:35 PM 44.6 °F 38.8 °F 26.6 °F 49% 29.77 in 10.0 mi SSW 11.5 mph 25.3 mph N/A   Overcast
1:55 PM 44.6 °F 37.4 °F 26.6 °F 49% 29.77 in 10.0 mi South 16.1 mph 26.5 mph N/A   Mostly Cloudy
2:15 PM 46.4 °F 41.5 °F 26.6 °F 46% 29.76 in 10.0 mi SSW 10.4 mph 20.7 mph N/A   Mostly Cloudy
2:35 PM 46.4 °F 41.5 °F 28.4 °F 50% 29.75 in 10.0 mi South 10.4 mph 20.7 mph N/A   Scattered Clouds
2:55 PM 46.4 °F 41.5 °F 28.4 °F 50% 29.75 in 10.0 mi SSW 10.4 mph 21.9 mph N/A   Mostly Cloudy
3:15 PM 44.6 °F 38.4 °F 30.2 °F 57% 29.76 in 10.0 mi SSW 12.7 mph 25.3 mph N/A   Overcast
3:35 PM 46.4 °F 40.7 °F 30.2 °F 53% 29.76 in 10.0 mi SSW 12.7 mph 21.9 mph N/A   Overcast
3:55 PM 46.4 °F 40.7 °F 30.2 °F 53% 29.76 in 10.0 mi SW 12.7 mph 24.2 mph N/A   Scattered Clouds
4:15 PM 46.4 °F 39.8 °F 26.6 °F 46% 29.78 in 10.0 mi WSW 16.1 mph 25.3 mph N/A   Mostly Cloudy
4:35 PM 46.4 °F 40.1 °F 26.6 °F 46% 29.79 in 10.0 mi WSW 15.0 mph 25.3 mph N/A   Mostly Cloudy
4:55 PM 44.6 °F 39.7 °F 26.6 °F 49% 29.80 in 10.0 mi SW 9.2 mph 19.6 mph N/A   Mostly Cloudy
5:15 PM 42.8 °F 35.4 °F 24.8 °F 49% 29.82 in 10.0 mi WSW 15.0 mph 24.2 mph N/A   Scattered Clouds
5:35 PM 42.8 °F 37.5 °F 24.8 °F 49% 29.84 in 10.0 mi WSW 9.2 mph 20.7 mph N/A   Mostly Cloudy
5:55 PM 39.2 °F 31.2 °F 24.8 °F 56% 29.86 in 10.0 mi WSW 13.8 mph 25.3 mph N/A   Scattered Clouds
6:15 PM 37.4 °F 28.2 °F 24.8 °F 60% 29.88 in 10.0 mi West 16.1 mph 25.3 mph N/A   Scattered Clouds
6:35 PM 35.6 °F 26.6 °F 24.8 °F 65% 29.90 in 10.0 mi West 13.8 mph 25.3 mph N/A   Scattered Clouds
6:55 PM 35.6 °F 26.2 °F 23.0 °F 60% 29.91 in 10.0 mi West 15.0 mph 24.2 mph N/A   Mostly Cloudy
7:15 PM 33.8 °F 25.3 °F 23.0 °F 65% 29.92 in 10.0 mi WSW 11.5 mph 21.9 mph N/A   Overcast
7:35 PM 33.8 °F 24.8 °F 23.0 °F 65% 29.93 in 10.0 mi WSW 12.7 mph 27.6 mph N/A   Overcast
7:55 PM 33.8 °F 22.8 °F 23.0 °F 65% 29.93 in 10.0 mi WSW 18.4 mph 28.8 mph N/A   Overcast
8:15 PM 33.8 °F 25.8 °F 21.2 °F 60% 29.93 in 10.0 mi WSW 10.4 mph 19.6 mph N/A   Mostly Cloudy
8:35 PM 33.8 °F 25.3 °F 23.0 °F 65% 29.93 in 10.0 mi WSW 11.5 mph 21.9 mph N/A   Scattered Clouds
8:55 PM 32.0 °F 22.5 °F 21.2 °F 64% 29.94 in 10.0 mi WSW 12.7 mph 24.2 mph N/A   Scattered Clouds
9:15 PM 32.0 °F 23.6 °F 21.2 °F 64% 29.95 in 10.0 mi West 10.4 mph 18.4 mph N/A   Scattered Clouds
9:35 PM 32.0 °F 26.4 °F 21.2 °F 64% 29.95 in 10.0 mi West 5.8 mph - N/A   Overcast
9:55 PM 32.0 °F 26.4 °F 23.0 °F 69% 29.96 in 10.0 mi WSW 5.8 mph - N/A   Overcast
10:15 PM 32.0 °F 24.8 °F 23.0 °F 69% 29.97 in 10.0 mi West 8.1 mph - N/A   Overcast
10:35 PM 32.0 °F 22.1 °F 19.4 °F 60% 29.97 in 10.0 mi WSW 13.8 mph 25.3 mph N/A   Mostly Cloudy
10:55 PM 30.2 °F 21.9 °F 19.4 °F 64% 29.98 in 10.0 mi WSW 9.2 mph 25.3 mph N/A   Scattered Clouds
11:15 PM 32.0 °F 22.5 °F 19.4 °F 60% 29.98 in 10.0 mi West 12.7 mph 19.6 mph N/A   Mostly Cloudy
11:35 PM 32.0 °F 20.8 °F 19.4 °F 60% 29.99 in 10.0 mi West 17.3 mph 23.0 mph N/A   Overcast
11:55 PM 32.0 °F 23.6 °F 19.4 °F 60% 30.00 in 10.0 mi West 10.4 mph 24.2 mph N/A   Overcast